User: anonymous   Login
Location: Unspecified
(0.0000°N, 0.0000°E)
Time: 13:19:30
(UTC+00:00)
Language:

ZHOU ENLAI - Orbit

View from above orbital plane
View from above orbital plane
View from above satellite
View from above satellite

Ground track
Ground track

The orbit data is extracted from the following two-line orbital elements,

1 43156U 18008B   20228.16656472  .00000499  00000-0  33402-4 0  9995
2 43156  97.4473 295.5970 0013333 309.1212 103.0579 15.11255127141745
Epoch (UTC): 15 August 2020 03:59:51
Eccentricity: 0.0013333
inclination: 97.4473°
perigee height: 523 km
apogee height: 541 km
right ascension of ascending node: 295.5970°
argument of perigee: 309.1212°
revolutions per day: 15.11255127
mean anomaly at epoch: 103.0579°
orbit number at epoch: 14174

The dashed part of the orbit path shows where the satellite is in the earth's shadow,  

DLR